Index of /manuals/Inspection Programs/AAIP/206L Series/Rev 8/Section C/Archive/

NameLast ModifiedSize
UpParent Directory
FileC0010 300 Hr - 12 Mon.doc2023-06-21 17:03 155k
FileC0020 300 Hr - 12 Mon.doc2023-06-21 17:03 154k
FileC0030 300 Hr - 12 Mon.doc2023-06-21 17:03 243k
FileC0040 300 Hr - 12 Mon.doc2023-06-21 17:03 164k
FileC0050 300 Hr - 12 Mon.doc2023-06-21 17:04 163k
FileC0060 300 Hr - 12 Mon.doc2023-06-21 17:04 404k
FileC0100 100 Hr.docx2023-06-21 17:04 35k
FileC0120 - 12 Mon.doc2023-06-21 17:04 334k
FileC0301 300 Hr - 12 Mon.doc2023-06-21 17:04 171k
FileC0302 300 Hr - 12 Mon.doc2023-06-21 17:04 174k
FileC0360 36 Mon.doc2023-06-21 17:04 111k
FileC0550 500 Hr - 6 Mon.doc2023-06-21 17:04 146k
File~$010 300 Hr - 12 Mon.doc2023-06-21 17:04 1k
File~$020 300 Hr - 12 Mon (1).doc2023-06-21 17:04 1k
File~$020 300 Hr - 12 Mon (2).doc2023-06-21 17:04 1k
File~$020 300 Hr - 12 Mon.doc2023-06-21 17:04 1k
File~$030 300 Hr - 12 Mon (1).doc2023-06-21 17:04 1k
File~$030 300 Hr - 12 Mon.doc2023-06-21 17:04 1k
File~$040 300 Hr - 12 Mon (1).doc2023-06-21 17:04 1k
File~$040 300 Hr - 12 Mon (2).doc2023-06-21 17:04 1k
File~$040 300 Hr - 12 Mon.doc2023-06-21 17:04 1k
File~$050 300 Hr - 12 Mon (1).doc2023-06-21 17:04 1k
File~$050 300 Hr - 12 Mon.doc2023-06-21 17:04 1k
File~$060 300 Hr - 12 Mon.doc2023-06-21 17:04 1k
Proudly Served by LiteSpeed Web Server at www.mhi.rotor-apps.com Port 443